Location: Limerick
(52.6650°N, 8.6230°W)
Time: 05:45:52
(UTC+01:00)

ISS - Pass Details

Date: 04 September 2019
Orbit: 411 x 421 km, 51.6° (Epoch: 14 October)

Event Time Altitude Azimuth Distance (km) Brightness Sun altitude
Exits shadow 03:46:28 13° 108° (ESE) 1,320 -1.1 -23.7°
Drops below altitude 10° 03:47:05 10° 99° (E) 1,491 -0.7 -23.7°
Sets 03:49:37 0° 80° (E) 2,360 0.7 -23.4°
